Regional Weather Roundup
Issued by NWS

Home | Current Version | Previous Version | Graphics & Text | Print | Product List | Glossary On
Versions: 1 2 3 4 5 6 7 8 9 10 11 12 13 14 15 16 17 18 19 20 21 22 23 24 25 26 27 28 29 30 31 32 33 34 35 36 37 38 39 40 41 42 43 44 45 46 47 48 49 50
157
ASUS43 KLSX 271310
RWRMO

WEATHER SUMMARY FOR MISSOURI
NATIONAL WEATHER SERVICE SPRINGFIELD MO
800 AM CDT THU APR 27 2017

NOTE: "FAIR" INDICATES FEW OR NO CLOUDS BELOW 12,000 FEET WITH NO
       SIGNIFICANT WEATHER AND/OR OBSTRUCTIONS TO VISIBILITY.
       CURRENT SKY AND/OR WEATHER CONDITIONS ARE NOT AVAILABLE FOR
       CHILLICOTHE AND FARMINGTON.

MOZ001>031-035>038-043-044-053-054-271400-
...NORTHERN AND WESTERN MISSOURI...

CITY           SKY/WX    TMP DP  RH WIND       PRES   REMARKS
KANSAS CTY INT PTSUNNY   43  33  68 W8        29.72R
KANSAS C DTWN  CLOUDY    45  33  63 W9        29.73R
LEE`S SUMMIT   CLOUDY    43  35  73 W8        29.73R
ST JOSEPH      CLOUDY    43  34  70 W10       29.72R
CHILLICOTHE      N/A     43  33  68 NW8G17    29.69R
KIRKSVILLE     CLOUDY    41  35  79 W10G18    29.66R

$$
MOZ066>068-077>081-088>096-101>105-271400-
...SOUTHWEST MISSOURI...

CITY           SKY/WX    TMP DP  RH WIND       PRES   REMARKS
SPRINGFIELD    SUNNY     44  38  79 W7        29.76R
JOPLIN         SUNNY     45  42  89 CALM      29.78R
BRANSON        SUNNY     45  39  81 W3        29.78R

$$
MOZ032>034-039>042-045>050-055>058-069>072-271400-
...CENTRAL MISSOURI...

CITY           SKY/WX    TMP DP  RH WIND       PRES   REMARKS
COLUMBIA       CLOUDY    43  38  82 W10       29.71R
JEFFERSON CITY CLOUDY    47  38  71 W12       29.73R
ROLLA          CLOUDY    43  41  93 W8        29.72R
SEDALIA        PTSUNNY   44  38  79 W10       29.74R
WHITEMAN AFB   MOSUNNY   43  42  97 W9        29.72R
OSAGE BEACH    CLOUDY    44  39  82 W8        29.75R

$$
MOZ051-052-059>065-271400-
...EAST CENTRAL MISSOURI...

CITY           SKY/WX    TMP DP  RH WIND       PRES   REMARKS
ST LOUIS INTL  LGT RAIN  47  43  86 W15       29.69R FOG
SPIRIT OF STL  CLOUDY    47  44  90 W9        29.70R
ST CHARLES     CLOUDY    47  42  83 W12       29.68R

$$
MOZ072>076-082>087-097>100-106>115-271400-
...SOUTH CENTRAL AND SOUTHEAST MISSOURI...

CITY           SKY/WX    TMP DP  RH WIND       PRES   REMARKS
CAPE GIRARDEAU CLOUDY    50  43  77 W9        29.74R
FARMINGTON     CLOUDY    45  40  82 W12       29.73R
POPLAR BLUFF   CLOUDY    50  46  86 W8        29.76R
WEST PLAINS    CLOUDY    46  40  79 NW10      29.76R

$$




USA.gov is the U.S. government's official web portal to all federal, state and local government web resources and services.